Year,Month,Day,Hour,Minute,Value (Times are PST for temperature in C)
2021,03,29,00,00,0.80
2021,03,29,00,01,0.70
2021,03,29,00,02,0.70
2021,03,29,00,03,0.70
2021,03,29,00,04,0.70
2021,03,29,00,05,0.70
2021,03,29,00,06,0.70
2021,03,29,00,07,0.70
2021,03,29,00,08,0.60
2021,03,29,00,09,0.60
2021,03,29,00,10,0.60
2021,03,29,00,11,0.60
2021,03,29,00,12,0.60
2021,03,29,00,13,0.60
2021,03,29,00,14,0.60
2021,03,29,00,15,0.60
2021,03,29,00,16,0.60
2021,03,29,00,17,0.50
2021,03,29,00,18,0.50
2021,03,29,00,19,0.50
2021,03,29,00,20,0.50
2021,03,29,00,21,0.50
2021,03,29,00,22,0.40
2021,03,29,00,23,0.40
2021,03,29,00,24,0.40
2021,03,29,00,25,0.40
2021,03,29,00,26,0.40
2021,03,29,00,27,0.40
2021,03,29,00,28,0.40
2021,03,29,00,29,0.40
2021,03,29,00,30,0.30
2021,03,29,00,31,0.30
2021,03,29,00,32,0.30
2021,03,29,00,33,0.30
2021,03,29,00,34,0.30
2021,03,29,00,35,0.20
2021,03,29,00,36,0.20
2021,03,29,00,37,0.20
2021,03,29,00,38,0.20
2021,03,29,00,39,0.20
2021,03,29,00,40,0.20
2021,03,29,00,41,0.20
2021,03,29,00,42,0.20
2021,03,29,00,43,0.20
2021,03,29,00,44,0.20
2021,03,29,00,45,0.20
2021,03,29,00,46,0.20
2021,03,29,00,47,0.20
2021,03,29,00,48,0.20
2021,03,29,00,49,0.20
2021,03,29,00,50,0.20
2021,03,29,00,51,0.20
2021,03,29,00,52,0.20
2021,03,29,00,53,0.10
2021,03,29,00,54,0.20
2021,03,29,00,55,0.20
2021,03,29,00,56,0.20
2021,03,29,00,57,0.20
2021,03,29,00,58,0.20
2021,03,29,00,59,0.20
2021,03,29,01,00,0.20
2021,03,29,01,01,0.20
2021,03,29,01,02,0.20
2021,03,29,01,03,0.20
2021,03,29,01,04,0.20
2021,03,29,01,05,0.10
2021,03,29,01,06,0.10
2021,03,29,01,07,0.10
2021,03,29,01,08,0.10
2021,03,29,01,09,0.10
2021,03,29,01,10,0.10
2021,03,29,01,11,0.10
2021,03,29,01,12,0.10
2021,03,29,01,13,0.00
2021,03,29,01,14,0.00
2021,03,29,01,15,0.00
2021,03,29,01,16,0.00
2021,03,29,01,17,0.00
2021,03,29,01,18,-0.10
2021,03,29,01,19,-0.10
2021,03,29,01,20,-0.10
2021,03,29,01,21,-0.10
2021,03,29,01,22,-0.10
2021,03,29,01,23,-0.10
2021,03,29,01,24,-0.10
2021,03,29,01,25,-0.10
2021,03,29,01,26,-0.10
2021,03,29,01,27,-0.10
2021,03,29,01,28,-0.10
2021,03,29,01,29,-0.10
2021,03,29,01,30,-0.10
2021,03,29,01,31,-0.10
2021,03,29,01,32,-0.10
2021,03,29,01,33,-0.10
2021,03,29,01,34,-0.10
2021,03,29,01,35,-0.10
2021,03,29,01,36,-0.10
2021,03,29,01,37,-0.10
2021,03,29,01,38,-0.10
2021,03,29,01,39,-0.10
2021,03,29,01,40,-0.10
2021,03,29,01,41,-0.10
2021,03,29,01,42,-0.10
2021,03,29,01,43,-0.10
2021,03,29,01,44,-0.10
2021,03,29,01,45,-0.10
2021,03,29,01,46,-0.10
2021,03,29,01,47,-0.10
2021,03,29,01,48,-0.10
2021,03,29,01,49,-0.10
2021,03,29,01,50,-0.10
2021,03,29,01,51,-0.10
2021,03,29,01,52,-0.10
2021,03,29,01,53,-0.10
2021,03,29,01,54,-0.10
2021,03,29,01,55,-0.10
2021,03,29,01,56,-0.10
2021,03,29,01,57,-0.10
2021,03,29,01,58,-0.10
2021,03,29,01,59,-0.10
2021,03,29,02,00,-0.10
2021,03,29,02,01,-0.10
2021,03,29,02,02,-0.10
2021,03,29,02,03,-0.10
2021,03,29,02,04,-0.10
2021,03,29,02,05,-0.10
2021,03,29,02,06,-0.10
2021,03,29,02,07,-0.10
2021,03,29,02,08,-0.20
2021,03,29,02,09,-0.20
2021,03,29,02,10,-0.20
2021,03,29,02,11,-0.20
2021,03,29,02,12,-0.20
2021,03,29,02,13,-0.20
2021,03,29,02,14,-0.20
2021,03,29,02,15,-0.20
2021,03,29,02,16,-0.30
2021,03,29,02,17,-0.30
2021,03,29,02,18,-0.30
2021,03,29,02,19,-0.30
2021,03,29,02,20,-0.30
2021,03,29,02,21,-0.30
2021,03,29,02,22,-0.30
2021,03,29,02,23,-0.30
2021,03,29,02,24,-0.30
2021,03,29,02,25,-0.40
2021,03,29,02,26,-0.40
2021,03,29,02,27,-0.40
2021,03,29,02,28,-0.40
2021,03,29,02,29,-0.40
2021,03,29,02,30,-0.40
2021,03,29,02,31,-0.40
2021,03,29,02,32,-0.40
2021,03,29,02,33,-0.40
2021,03,29,02,34,-0.40
2021,03,29,02,35,-0.40
2021,03,29,02,36,-0.40
2021,03,29,02,37,-0.40
2021,03,29,02,38,-0.40
2021,03,29,02,39,-0.40
2021,03,29,02,40,-0.50
2021,03,29,02,41,-0.50
2021,03,29,02,42,-0.50
2021,03,29,02,43,-0.50
2021,03,29,02,44,-0.60
2021,03,29,02,45,-0.60
2021,03,29,02,46,-0.60
2021,03,29,02,47,-0.60
2021,03,29,02,48,-0.60
2021,03,29,02,49,-0.60
2021,03,29,02,50,-0.60
2021,03,29,02,51,-0.60
2021,03,29,02,52,-0.60
2021,03,29,02,53,-0.60
2021,03,29,02,54,-0.60
2021,03,29,02,55,-0.60
2021,03,29,02,56,-0.50
2021,03,29,02,57,-0.50
2021,03,29,02,58,-0.50
2021,03,29,02,59,-0.60
2021,03,29,03,00,-0.50
2021,03,29,03,01,-0.50
2021,03,29,03,02,-0.50
2021,03,29,03,03,-0.60
2021,03,29,03,04,-0.60
2021,03,29,03,05,-0.60
2021,03,29,03,06,-0.60
2021,03,29,03,07,-0.60
2021,03,29,03,08,-0.60
2021,03,29,03,09,-0.60
2021,03,29,03,10,-0.60
2021,03,29,03,11,-0.60
2021,03,29,03,12,-0.60
2021,03,29,03,13,-0.60
2021,03,29,03,14,-0.60
2021,03,29,03,15,-0.60
2021,03,29,03,16,-0.60
2021,03,29,03,17,-0.60
2021,03,29,03,18,-0.60
2021,03,29,03,19,-0.70
2021,03,29,03,20,-0.70
2021,03,29,03,21,-0.70
2021,03,29,03,22,-0.70
2021,03,29,03,23,-0.70
2021,03,29,03,24,-0.70
2021,03,29,03,25,-0.70
2021,03,29,03,26,-0.70
2021,03,29,03,27,-0.70
2021,03,29,03,28,-0.70
2021,03,29,03,29,-0.70
2021,03,29,03,30,-0.70
2021,03,29,03,31,-0.70
2021,03,29,03,32,-0.70
2021,03,29,03,33,-0.70
2021,03,29,03,34,-0.80
2021,03,29,03,35,-0.70
2021,03,29,03,36,-0.70
2021,03,29,03,37,-0.70
2021,03,29,03,38,-0.70
2021,03,29,03,39,-0.70
2021,03,29,03,40,-0.70
2021,03,29,03,41,-0.70
2021,03,29,03,42,-0.70
2021,03,29,03,43,-0.70
2021,03,29,03,44,-0.70
2021,03,29,03,45,-0.70
2021,03,29,03,46,-0.70
2021,03,29,03,47,-0.70
2021,03,29,03,48,-0.70
2021,03,29,03,49,-0.70
2021,03,29,03,50,-0.70
2021,03,29,03,51,-0.80
2021,03,29,03,52,-0.80
2021,03,29,03,53,-0.80
2021,03,29,03,54,-0.80
2021,03,29,03,55,-0.80
2021,03,29,03,56,-0.80
2021,03,29,03,57,-0.80
2021,03,29,03,58,-0.90
2021,03,29,03,59,-0.80
2021,03,29,04,00,-0.80
2021,03,29,04,01,-0.80
2021,03,29,04,02,-0.80
2021,03,29,04,03,-0.80
2021,03,29,04,04,-0.90
2021,03,29,04,05,-0.90
2021,03,29,04,06,-0.90
2021,03,29,04,07,-0.90
2021,03,29,04,08,-0.90
2021,03,29,04,09,-0.90
2021,03,29,04,10,-0.90
2021,03,29,04,11,-1.00
2021,03,29,04,12,-1.00
2021,03,29,04,13,-1.00
2021,03,29,04,14,-1.00
2021,03,29,04,15,-1.00
2021,03,29,04,16,-1.00
2021,03,29,04,17,-1.00
2021,03,29,04,18,-1.10
2021,03,29,04,19,-1.10
2021,03,29,04,20,-1.10
2021,03,29,04,21,-1.10
2021,03,29,04,22,-1.10
2021,03,29,04,23,-1.20
2021,03,29,04,24,-1.10
2021,03,29,04,25,-1.10
2021,03,29,04,26,-1.10
2021,03,29,04,27,-1.10
2021,03,29,04,28,-1.10
2021,03,29,04,29,-1.10
2021,03,29,04,30,-1.10
2021,03,29,04,31,-1.10
2021,03,29,04,32,-1.10
2021,03,29,04,33,-1.10
2021,03,29,04,34,-1.10
2021,03,29,04,35,-1.10
2021,03,29,04,36,-1.10
2021,03,29,04,37,-1.10
2021,03,29,04,38,-1.10
2021,03,29,04,39,-1.20
2021,03,29,04,40,-1.20
2021,03,29,04,41,-1.20
2021,03,29,04,42,-1.20
2021,03,29,04,43,-1.20
2021,03,29,04,44,-1.20
2021,03,29,04,45,-1.20
2021,03,29,04,46,-1.30
2021,03,29,04,47,-1.30
2021,03,29,04,48,-1.30
2021,03,29,04,49,-1.30
2021,03,29,04,50,-1.30
2021,03,29,04,51,-1.30
2021,03,29,04,52,-1.30
2021,03,29,04,53,-1.30
2021,03,29,04,54,-1.30
2021,03,29,04,55,-1.30
2021,03,29,04,56,-1.30
2021,03,29,04,57,-1.30
2021,03,29,04,58,-1.30
2021,03,29,04,59,-1.30
2021,03,29,05,00,-1.30
2021,03,29,05,01,-1.30
2021,03,29,05,02,-1.30
2021,03,29,05,03,-1.30
2021,03,29,05,04,-1.30
2021,03,29,05,05,-1.30
2021,03,29,05,06,-1.30
2021,03,29,05,07,-1.30
2021,03,29,05,08,-1.30
2021,03,29,05,09,-1.30
2021,03,29,05,10,-1.30
2021,03,29,05,11,-1.30
2021,03,29,05,12,-1.30
2021,03,29,05,13,-1.30
2021,03,29,05,14,-1.30
2021,03,29,05,15,-1.30
2021,03,29,05,16,-1.30
2021,03,29,05,17,-1.30
2021,03,29,05,18,-1.30
2021,03,29,05,19,-1.30
2021,03,29,05,20,-1.40
2021,03,29,05,21,-1.40
2021,03,29,05,22,-1.40
2021,03,29,05,23,-1.40
2021,03,29,05,24,-1.40
2021,03,29,05,25,-1.40
2021,03,29,05,26,-1.40
2021,03,29,05,27,-1.40
2021,03,29,05,28,-1.40
2021,03,29,05,29,-1.40
2021,03,29,05,30,-1.40
2021,03,29,05,31,-1.40
2021,03,29,05,32,-1.40
2021,03,29,05,33,-1.40
2021,03,29,05,34,-1.50
2021,03,29,05,35,-1.50
2021,03,29,05,36,-1.50
2021,03,29,05,37,-1.50
2021,03,29,05,38,-1.50
2021,03,29,05,39,-1.50
2021,03,29,05,40,-1.50
2021,03,29,05,41,-1.50
2021,03,29,05,42,-1.60
2021,03,29,05,43,-1.60
2021,03,29,05,44,-1.60
2021,03,29,05,45,-1.60
2021,03,29,05,46,-1.60
2021,03,29,05,47,-1.60
2021,03,29,05,48,-1.60
2021,03,29,05,49,-1.60
2021,03,29,05,50,-1.60
2021,03,29,05,51,-1.60
2021,03,29,05,52,-1.60
2021,03,29,05,53,-1.60
2021,03,29,05,54,-1.60
2021,03,29,05,55,-1.60
2021,03,29,05,56,-1.60
2021,03,29,05,57,-1.60
2021,03,29,05,58,-1.70
2021,03,29,05,59,-1.70
2021,03,29,06,00,-1.70
2021,03,29,06,01,-1.70
2021,03,29,06,02,-1.70
2021,03,29,06,03,-1.70
2021,03,29,06,04,-1.70
2021,03,29,06,05,-1.70
2021,03,29,06,06,-1.70
2021,03,29,06,07,-1.70
2021,03,29,06,08,-1.70
2021,03,29,06,09,-1.70
2021,03,29,06,10,-1.70
2021,03,29,06,11,-1.70
2021,03,29,06,12,-1.70
2021,03,29,06,13,-1.70
2021,03,29,06,14,-1.70
2021,03,29,06,15,-1.60
2021,03,29,06,16,-1.60
2021,03,29,06,17,-1.60
2021,03,29,06,18,-1.60
2021,03,29,06,19,-1.60
2021,03,29,06,20,-1.60
2021,03,29,06,21,-1.60
2021,03,29,06,22,-1.60
2021,03,29,06,23,-1.60
2021,03,29,06,24,-1.60
2021,03,29,06,25,-1.70
2021,03,29,06,26,-1.70
2021,03,29,06,27,-1.70
2021,03,29,06,28,-1.70
2021,03,29,06,29,-1.70
2021,03,29,06,30,-1.70
2021,03,29,06,31,-1.70
2021,03,29,06,32,-1.70
2021,03,29,06,33,-1.70
2021,03,29,06,34,-1.70
2021,03,29,06,35,-1.70
2021,03,29,06,36,-1.70
2021,03,29,06,37,-1.80
2021,03,29,06,38,-1.80
2021,03,29,06,39,-1.80
2021,03,29,06,40,-1.80
2021,03,29,06,41,-1.80
2021,03,29,06,42,-1.80
2021,03,29,06,43,-1.80
2021,03,29,06,44,-1.80
2021,03,29,06,45,-1.80
2021,03,29,06,46,-1.90
2021,03,29,06,47,-1.90
2021,03,29,06,48,-1.90
2021,03,29,06,49,-1.90
2021,03,29,06,50,-1.90
2021,03,29,06,51,-1.90
2021,03,29,06,52,-1.90
2021,03,29,06,53,-1.90
2021,03,29,06,54,-1.90
2021,03,29,06,55,-1.90
2021,03,29,06,56,-1.90
2021,03,29,06,57,-1.90
2021,03,29,06,58,-1.90
2021,03,29,06,59,-1.90
2021,03,29,07,00,-1.90
2021,03,29,07,01,-2.00
2021,03,29,07,02,-2.00
2021,03,29,07,03,-2.00
2021,03,29,07,04,-2.00
2021,03,29,07,05,-2.00
2021,03,29,07,06,-2.00
2021,03,29,07,07,-1.90
2021,03,29,07,08,-1.90
2021,03,29,07,09,-1.90
2021,03,29,07,10,-1.90
2021,03,29,07,11,-1.90
2021,03,29,07,12,-1.90
2021,03,29,07,13,-1.90
2021,03,29,07,14,-2.00
2021,03,29,07,15,-2.00
2021,03,29,07,16,-2.00
2021,03,29,07,17,-2.00
2021,03,29,07,18,-2.00
2021,03,29,07,19,-2.00
2021,03,29,07,20,-2.00
2021,03,29,07,21,-2.00
2021,03,29,07,22,-2.00
2021,03,29,07,23,-2.00
2021,03,29,07,24,-2.00
2021,03,29,07,25,-2.00
2021,03,29,07,26,-2.00
2021,03,29,07,27,-2.00
2021,03,29,07,28,-2.00
2021,03,29,07,29,-2.00
2021,03,29,07,30,-2.00
2021,03,29,07,31,-2.00
2021,03,29,07,32,-2.00
2021,03,29,07,33,-2.00
2021,03,29,07,34,-2.00
2021,03,29,07,35,-2.00
2021,03,29,07,36,-1.90
2021,03,29,07,37,-1.90
2021,03,29,07,38,-1.90
2021,03,29,07,39,-1.90
2021,03,29,07,40,-1.80
2021,03,29,07,41,-1.80
2021,03,29,07,42,-1.80
2021,03,29,07,43,-1.80
2021,03,29,07,44,-1.80
2021,03,29,07,45,-1.80
2021,03,29,07,46,-1.80
2021,03,29,07,47,-1.80
2021,03,29,07,48,-1.70
2021,03,29,07,49,-1.70
2021,03,29,07,50,-1.60
2021,03,29,07,51,-1.50
2021,03,29,07,52,-1.50
2021,03,29,07,53,-1.40
2021,03,29,07,54,-1.40
2021,03,29,07,55,-1.40
2021,03,29,07,56,-1.30
2021,03,29,07,57,-1.30
2021,03,29,07,58,-1.30
2021,03,29,07,59,-1.30
2021,03,29,08,00,-1.30
2021,03,29,08,01,-1.30
2021,03,29,08,02,-1.30
2021,03,29,08,03,-1.20
2021,03,29,08,04,-1.20
2021,03,29,08,05,-1.20
2021,03,29,08,06,-1.20
2021,03,29,08,07,-1.10
2021,03,29,08,08,-1.00
2021,03,29,08,09,-1.00
2021,03,29,08,10,-0.90
2021,03,29,08,11,-0.90
2021,03,29,08,12,-0.90
2021,03,29,08,13,-0.90
2021,03,29,08,14,-0.90
2021,03,29,08,15,-0.80
2021,03,29,08,16,-0.80
2021,03,29,08,17,-0.80
2021,03,29,08,18,-0.70
2021,03,29,08,19,-0.70
2021,03,29,08,20,-0.70
2021,03,29,08,21,-0.60
2021,03,29,08,22,-0.60
2021,03,29,08,23,-0.50
2021,03,29,08,24,-0.40
2021,03,29,08,25,-0.40
2021,03,29,08,26,-0.30
2021,03,29,08,27,-0.30
2021,03,29,08,28,-0.20
2021,03,29,08,29,-0.20
2021,03,29,08,30,-0.20
2021,03,29,08,31,-0.10
2021,03,29,08,32,-0.10
2021,03,29,08,33,-0.10
2021,03,29,08,34,-0.10
2021,03,29,08,35,0.00
2021,03,29,08,36,0.00
2021,03,29,08,37,0.10
2021,03,29,08,38,0.10
2021,03,29,08,39,0.20
2021,03,29,08,40,0.20
2021,03,29,08,41,0.30
2021,03,29,08,42,0.30
2021,03,29,08,43,0.30
2021,03,29,08,44,0.30
2021,03,29,08,45,0.40
2021,03,29,08,46,0.40
2021,03,29,08,47,0.40
2021,03,29,08,48,0.50
2021,03,29,08,49,0.60
2021,03,29,08,50,0.60
2021,03,29,08,51,0.70
2021,03,29,08,52,0.70
2021,03,29,08,53,0.80
2021,03,29,08,54,0.80
2021,03,29,08,55,0.80
2021,03,29,08,56,0.80
2021,03,29,08,57,0.80
2021,03,29,08,58,0.90
2021,03,29,08,59,0.90
2021,03,29,09,00,0.90
2021,03,29,09,01,0.90
2021,03,29,09,02,0.90
2021,03,29,09,03,1.00
2021,03,29,09,04,1.00
2021,03,29,09,05,1.10
2021,03,29,09,06,1.20
2021,03,29,09,07,1.30
2021,03,29,09,08,1.40
2021,03,29,09,09,1.50
2021,03,29,09,10,1.50
2021,03,29,09,11,1.60
2021,03,29,09,12,1.70
2021,03,29,09,13,1.70
2021,03,29,09,14,1.80
2021,03,29,09,15,1.80
2021,03,29,09,16,1.80
2021,03,29,09,17,1.80
2021,03,29,09,18,1.80
2021,03,29,09,19,1.80
2021,03,29,09,20,1.80
2021,03,29,09,21,1.80
2021,03,29,09,22,1.90
2021,03,29,09,23,1.90
2021,03,29,09,24,1.90
2021,03,29,09,25,1.90
2021,03,29,09,26,2.00
2021,03,29,09,27,2.00
2021,03,29,09,28,2.00
2021,03,29,09,29,2.10
2021,03,29,09,30,2.10
2021,03,29,09,31,2.10
2021,03,29,09,32,2.10
2021,03,29,09,33,2.10
2021,03,29,09,34,2.10
2021,03,29,09,35,2.10
2021,03,29,09,36,2.10
2021,03,29,09,37,2.20
2021,03,29,09,38,2.20
2021,03,29,09,39,2.30
2021,03,29,09,40,2.30
2021,03,29,09,41,2.40
2021,03,29,09,42,2.40
2021,03,29,09,43,2.40
2021,03,29,09,44,2.50
2021,03,29,09,45,2.50
2021,03,29,09,46,2.60
2021,03,29,09,47,2.70
2021,03,29,09,48,2.70
2021,03,29,09,49,2.80
2021,03,29,09,50,2.90
2021,03,29,09,51,2.90
2021,03,29,09,52,3.00
2021,03,29,09,53,3.00
2021,03,29,09,54,3.10
2021,03,29,09,55,3.10
2021,03,29,09,56,3.10
2021,03,29,09,57,3.20
2021,03,29,09,58,3.20
2021,03,29,09,59,3.20
2021,03,29,10,00,3.20
2021,03,29,10,01,3.20
2021,03,29,10,02,3.30
2021,03,29,10,03,3.30
2021,03,29,10,04,3.30
2021,03,29,10,05,3.30
2021,03,29,10,06,3.30
2021,03,29,10,07,3.30
2021,03,29,10,08,3.30
2021,03,29,10,09,3.40
2021,03,29,10,10,3.40
2021,03,29,10,11,3.50
2021,03,29,10,12,3.60
2021,03,29,10,13,3.70
2021,03,29,10,14,3.70
2021,03,29,10,15,3.70
2021,03,29,10,16,3.70
2021,03,29,10,17,3.70
2021,03,29,10,18,3.70
2021,03,29,10,19,3.70
2021,03,29,10,20,3.70
2021,03,29,10,21,3.70
2021,03,29,10,22,4.00
2021,03,29,10,23,4.10
2021,03,29,10,24,4.10
2021,03,29,10,25,4.10
2021,03,29,10,26,4.10
2021,03,29,10,27,4.20
2021,03,29,10,28,4.20
2021,03,29,10,29,4.20
2021,03,29,10,30,4.20
2021,03,29,10,31,4.30
2021,03,29,10,32,4.30
2021,03,29,10,33,4.40
2021,03,29,10,34,4.40
2021,03,29,10,35,4.40
2021,03,29,10,36,4.40
2021,03,29,10,37,4.40
2021,03,29,10,38,4.40
2021,03,29,10,39,4.40
2021,03,29,10,40,4.40
2021,03,29,10,41,4.50
2021,03,29,10,42,4.50
2021,03,29,10,43,4.50
2021,03,29,10,44,4.60
2021,03,29,10,45,4.70
2021,03,29,10,46,4.80
2021,03,29,10,47,4.80
2021,03,29,10,48,4.90
2021,03,29,10,49,5.00
2021,03,29,10,50,5.10
2021,03,29,10,51,5.20
2021,03,29,10,52,5.30
2021,03,29,10,53,5.40
2021,03,29,10,54,5.40
2021,03,29,10,55,5.40
2021,03,29,10,56,5.50
2021,03,29,10,57,5.50
2021,03,29,10,58,5.50
2021,03,29,10,59,5.50
2021,03,29,11,00,5.50
2021,03,29,11,01,5.50
2021,03,29,11,02,5.50
2021,03,29,11,03,5.60
2021,03,29,11,04,5.60
2021,03,29,11,05,5.60
2021,03,29,11,06,5.60
2021,03,29,11,07,5.60
2021,03,29,11,08,5.70
2021,03,29,11,09,5.70
2021,03,29,11,10,5.80
2021,03,29,11,11,5.80
2021,03,29,11,12,5.90
2021,03,29,11,13,6.00
2021,03,29,11,14,6.00
2021,03,29,11,15,6.10
2021,03,29,11,16,6.00
2021,03,29,11,17,6.00
2021,03,29,11,18,5.90
2021,03,29,11,19,5.90
2021,03,29,11,20,5.90
2021,03,29,11,21,5.90
2021,03,29,11,22,6.00
2021,03,29,11,23,6.00
2021,03,29,11,24,6.00
2021,03,29,11,25,6.10
2021,03,29,11,26,6.10
2021,03,29,11,27,6.10
2021,03,29,11,28,6.10
2021,03,29,11,29,6.10
2021,03,29,11,30,6.20
2021,03,29,11,31,6.20
2021,03,29,11,32,6.20
2021,03,29,11,33,6.30
2021,03,29,11,34,6.30
2021,03,29,11,35,6.40
2021,03,29,11,36,6.50
2021,03,29,11,37,6.60
2021,03,29,11,38,6.60
2021,03,29,11,39,6.70
2021,03,29,11,40,6.80
2021,03,29,11,41,6.80
2021,03,29,11,42,6.90
2021,03,29,11,43,6.90
2021,03,29,11,44,6.90
2021,03,29,11,45,6.90
2021,03,29,11,46,7.00
2021,03,29,11,47,7.00
2021,03,29,11,48,7.00
2021,03,29,11,49,7.00
2021,03,29,11,50,7.10
2021,03,29,11,51,7.10
2021,03,29,11,52,7.20
2021,03,29,11,53,7.30
2021,03,29,11,54,7.40
2021,03,29,11,55,7.50
2021,03,29,11,56,7.60
2021,03,29,11,57,7.60
2021,03,29,11,58,7.60
2021,03,29,11,59,7.60
2021,03,29,12,00,7.60
2021,03,29,12,01,7.70
2021,03,29,12,02,7.70
2021,03,29,12,03,7.70
2021,03,29,12,04,7.70
2021,03,29,12,05,7.70
2021,03,29,12,06,7.70
2021,03,29,12,07,7.80
2021,03,29,12,08,7.80
2021,03,29,12,09,7.80
2021,03,29,12,10,7.90
2021,03,29,12,11,7.90
2021,03,29,12,12,7.80
2021,03,29,12,13,7.80
2021,03,29,12,14,7.80
2021,03,29,12,15,7.80
2021,03,29,12,16,7.80
2021,03,29,12,17,7.90
2021,03,29,12,18,7.90
2021,03,29,12,19,8.00
2021,03,29,12,20,8.00
2021,03,29,12,21,8.10
2021,03,29,12,22,8.10
2021,03,29,12,23,8.10
2021,03,29,12,24,8.10
2021,03,29,12,25,8.10
2021,03,29,12,26,8.10
2021,03,29,12,27,8.10
2021,03,29,12,28,8.10
2021,03,29,12,29,8.20
2021,03,29,12,30,8.20
2021,03,29,12,31,8.20
2021,03,29,12,32,8.30
2021,03,29,12,33,8.30
2021,03,29,12,34,8.40
2021,03,29,12,35,8.50
2021,03,29,12,36,8.60
2021,03,29,12,37,8.60
2021,03,29,12,38,8.60
2021,03,29,12,39,8.70
2021,03,29,12,40,8.80
2021,03,29,12,41,8.90
2021,03,29,12,42,9.10
2021,03,29,12,43,9.20
2021,03,29,12,44,9.30
2021,03,29,12,45,9.40
2021,03,29,12,46,9.40
2021,03,29,12,47,9.50
2021,03,29,12,48,9.40
2021,03,29,12,49,9.40
2021,03,29,12,50,9.40
2021,03,29,12,51,9.50
2021,03,29,12,52,9.50
2021,03,29,12,53,9.50
2021,03,29,12,54,9.50
2021,03,29,12,55,9.60
2021,03,29,12,56,9.60
2021,03,29,12,57,9.60
2021,03,29,12,58,9.60
2021,03,29,12,59,9.70
2021,03,29,13,00,9.70
2021,03,29,13,01,9.60
2021,03,29,13,02,9.60
2021,03,29,13,03,9.60
2021,03,29,13,04,9.60
2021,03,29,13,05,9.60
2021,03,29,13,06,9.60
2021,03,29,13,07,9.60
2021,03,29,13,08,9.60
2021,03,29,13,09,9.70
2021,03,29,13,10,9.70
2021,03,29,13,11,9.70
2021,03,29,13,12,9.70
2021,03,29,13,13,9.70
2021,03,29,13,14,9.70
2021,03,29,13,15,9.70
2021,03,29,13,16,9.70
2021,03,29,13,17,9.70
2021,03,29,13,18,9.70
2021,03,29,13,19,9.70
2021,03,29,13,20,9.80
2021,03,29,13,21,9.90
2021,03,29,13,22,9.80
2021,03,29,13,23,9.80
2021,03,29,13,24,9.90
2021,03,29,13,25,10.00
2021,03,29,13,26,10.00
2021,03,29,13,27,10.10
2021,03,29,13,28,10.10
2021,03,29,13,29,10.20
2021,03,29,13,30,10.20
2021,03,29,13,31,10.10
2021,03,29,13,32,10.10
2021,03,29,13,33,10.10
2021,03,29,13,34,10.10
2021,03,29,13,35,10.10
2021,03,29,13,36,10.20
2021,03,29,13,37,10.30
2021,03,29,13,38,10.40
2021,03,29,13,39,10.40
2021,03,29,13,40,10.30
2021,03,29,13,41,10.30
2021,03,29,13,42,10.20
2021,03,29,13,43,10.20
2021,03,29,13,44,10.20
2021,03,29,13,45,10.30
2021,03,29,13,46,10.30
2021,03,29,13,47,10.40
2021,03,29,13,48,10.40
2021,03,29,13,49,10.40
2021,03,29,13,50,10.40
2021,03,29,13,51,10.40
2021,03,29,13,52,10.40
2021,03,29,13,53,10.40
2021,03,29,13,54,10.40
2021,03,29,13,55,10.40
2021,03,29,13,56,10.50
2021,03,29,13,57,10.50
2021,03,29,13,58,10.50
2021,03,29,13,59,10.50
2021,03,29,14,00,10.50
2021,03,29,14,01,10.40
2021,03,29,14,02,10.40
2021,03,29,14,03,10.40
2021,03,29,14,04,10.50
2021,03,29,14,05,10.50
2021,03,29,14,06,10.70
2021,03,29,14,07,10.70
2021,03,29,14,08,10.80
2021,03,29,14,09,10.80
2021,03,29,14,10,10.80
2021,03,29,14,11,10.80
2021,03,29,14,12,10.70
2021,03,29,14,13,10.70
2021,03,29,14,14,10.70
2021,03,29,14,15,10.70
2021,03,29,14,16,10.70
2021,03,29,14,17,10.70
2021,03,29,14,18,10.70
2021,03,29,14,19,10.80
2021,03,29,14,20,10.80
2021,03,29,14,21,10.80
2021,03,29,14,22,10.80
2021,03,29,14,23,10.80
2021,03,29,14,24,10.90
2021,03,29,14,25,10.90
2021,03,29,14,26,10.90
2021,03,29,14,27,10.80
2021,03,29,14,28,10.80
2021,03,29,14,29,10.80
2021,03,29,14,30,10.80
2021,03,29,14,31,10.80
2021,03,29,14,32,10.80
2021,03,29,14,33,10.80
2021,03,29,14,34,10.90
2021,03,29,14,35,11.00
2021,03,29,14,36,11.10
2021,03,29,14,37,11.20
2021,03,29,14,38,11.30
2021,03,29,14,39,11.40
2021,03,29,14,40,11.40
2021,03,29,14,41,11.40
2021,03,29,14,42,11.40
2021,03,29,14,43,11.40
2021,03,29,14,44,11.30
2021,03,29,14,45,11.30
2021,03,29,14,46,11.20
2021,03,29,14,47,11.10
2021,03,29,14,48,11.20
2021,03,29,14,49,11.20
2021,03,29,14,50,11.30
2021,03,29,14,51,11.30
2021,03,29,14,52,11.30
2021,03,29,14,53,11.30
2021,03,29,14,54,11.30
2021,03,29,14,55,11.40
2021,03,29,14,56,11.40
2021,03,29,14,57,11.50
2021,03,29,14,58,11.60
2021,03,29,14,59,11.60
2021,03,29,15,00,11.60
2021,03,29,15,01,11.60
2021,03,29,15,02,11.50
2021,03,29,15,03,11.50
2021,03,29,15,04,11.50
2021,03,29,15,05,11.60
2021,03,29,15,06,11.60
2021,03,29,15,07,11.60
2021,03,29,15,08,11.60
2021,03,29,15,09,11.70
2021,03,29,15,10,11.70
2021,03,29,15,11,11.70
2021,03,29,15,12,11.70
2021,03,29,15,13,11.70
2021,03,29,15,14,11.80
2021,03,29,15,15,11.90
2021,03,29,15,16,11.90
2021,03,29,15,17,12.00
2021,03,29,15,18,12.00
2021,03,29,15,19,12.00
2021,03,29,15,20,11.90
2021,03,29,15,21,11.80
2021,03,29,15,22,11.70
2021,03,29,15,23,11.60
2021,03,29,15,24,11.60
2021,03,29,15,25,11.60
2021,03,29,15,26,11.50
2021,03,29,15,27,11.50
2021,03,29,15,28,11.60
2021,03,29,15,29,11.60
2021,03,29,15,30,11.60
2021,03,29,15,31,11.60
2021,03,29,15,32,11.60
2021,03,29,15,33,11.60
2021,03,29,15,34,11.60
2021,03,29,15,35,11.60
2021,03,29,15,36,11.50
2021,03,29,15,37,11.40
2021,03,29,15,38,11.40
2021,03,29,15,39,11.50
2021,03,29,15,40,11.50
2021,03,29,15,41,11.60
2021,03,29,15,42,11.70
2021,03,29,15,43,11.80
2021,03,29,15,44,11.90
2021,03,29,15,45,12.00
2021,03,29,15,46,12.00
2021,03,29,15,47,12.00
2021,03,29,15,48,12.00
2021,03,29,15,49,12.10
2021,03,29,15,50,12.00
2021,03,29,15,51,12.00
2021,03,29,15,52,12.00
2021,03,29,15,53,12.00
2021,03,29,15,54,12.00
2021,03,29,15,55,12.00
2021,03,29,15,56,12.00
2021,03,29,15,57,12.00
2021,03,29,15,58,12.10
2021,03,29,15,59,12.00
2021,03,29,16,00,12.00
2021,03,29,16,01,11.90
2021,03,29,16,02,11.90
2021,03,29,16,03,11.90
2021,03,29,16,04,11.90
2021,03,29,16,05,11.90
2021,03,29,16,06,11.90
2021,03,29,16,07,11.90
2021,03,29,16,08,11.90
2021,03,29,16,09,11.90
2021,03,29,16,10,11.90
2021,03,29,16,11,11.90
2021,03,29,16,12,11.90
2021,03,29,16,13,11.80
2021,03,29,16,14,11.80
2021,03,29,16,15,11.80
2021,03,29,16,16,11.80
2021,03,29,16,17,11.90
2021,03,29,16,18,11.90
2021,03,29,16,19,11.90
2021,03,29,16,20,11.90
2021,03,29,16,21,11.90
2021,03,29,16,22,11.90
2021,03,29,16,23,11.90
2021,03,29,16,24,11.90
2021,03,29,16,25,11.90
2021,03,29,16,26,12.00
2021,03,29,16,27,12.10
2021,03,29,16,28,12.20
2021,03,29,16,29,12.30
2021,03,29,16,30,12.30
2021,03,29,16,31,12.40
2021,03,29,16,32,12.40
2021,03,29,16,33,12.40
2021,03,29,16,34,12.30
2021,03,29,16,35,12.30
2021,03,29,16,36,12.30
2021,03,29,16,37,12.20
2021,03,29,16,38,12.20
2021,03,29,16,39,12.20
2021,03,29,16,40,12.30
2021,03,29,16,41,12.30
2021,03,29,16,42,12.30
2021,03,29,16,43,12.30
2021,03,29,16,44,12.30
2021,03,29,16,45,12.20
2021,03,29,16,46,12.20
2021,03,29,16,47,12.10
2021,03,29,16,48,12.10
2021,03,29,16,49,12.10
2021,03,29,16,50,12.00
2021,03,29,16,51,12.00
2021,03,29,16,52,12.00
2021,03,29,16,53,12.00
2021,03,29,16,54,12.00
2021,03,29,16,55,12.00
2021,03,29,16,56,12.00
2021,03,29,16,57,12.00
2021,03,29,16,58,11.90
2021,03,29,16,59,11.90
2021,03,29,17,00,11.90
2021,03,29,17,01,11.90
2021,03,29,17,02,11.80
2021,03,29,17,03,11.70
2021,03,29,17,04,11.70
2021,03,29,17,05,11.70
2021,03,29,17,06,11.60
2021,03,29,17,07,11.50
2021,03,29,17,08,11.50
2021,03,29,17,09,11.40
2021,03,29,17,10,11.40
2021,03,29,17,11,11.40
2021,03,29,17,12,11.40
2021,03,29,17,13,11.30
2021,03,29,17,14,11.30
2021,03,29,17,15,11.30
2021,03,29,17,16,11.30
2021,03,29,17,17,11.30
2021,03,29,17,18,11.40
2021,03,29,17,19,11.40
2021,03,29,17,20,11.40
2021,03,29,17,21,11.40
2021,03,29,17,22,11.30
2021,03,29,17,23,11.30
2021,03,29,17,24,11.20
2021,03,29,17,25,11.20
2021,03,29,17,26,11.30
2021,03,29,17,27,11.30
2021,03,29,17,28,11.30
2021,03,29,17,29,11.20
2021,03,29,17,30,11.10
2021,03,29,17,31,11.10
2021,03,29,17,32,11.00
2021,03,29,17,33,10.90
2021,03,29,17,34,10.80
2021,03,29,17,35,10.80